DL7MAP-13 Weather Reports


Display with metric or nautical units.
time (UTC)temp
F
wind
direction
speed
MPH
gust
MPH
rain 1hr
in
rain 24hr
in
rain mn
in
humidity
%
barometer
mb
20260504204307 61 0.0 0.0 0.00 0.00 0.00 73 1006.8
20260504202807 62 0.0 0.0 0.00 0.00 0.00 72 1006.8
20260504201307 62 0.0 0.0 0.00 0.00 0.00 71 1006.8
20260504195807 63 0.0 0.0 0.00 0.00 0.00 70 1006.7
20260504194307 64 0.0 0.0 0.00 0.00 0.00 69 1006.7
20260504192807 64 0.0 0.0 0.00 0.00 0.00 67 1006.6
20260504191307 65 0.0 0.0 0.00 0.00 0.00 65 1006.4
20260504185807 65 0.0 0.0 0.00 0.00 0.00 64 1006.5
20260504184307 67 0.0 0.0 0.00 0.00 0.00 61 1006.5
20260504182807 68 0.0 0.0 0.00 0.00 0.00 59 1006.3
20260504181307 69 0.0 0.0 0.00 0.00 0.00 57 1006.3
20260504175806 70 0.0 0.0 0.00 0.00 0.00 55 1006.0
20260504174307 71 0.0 0.0 0.00 0.00 0.00 54 1005.7
20260504172807 71 0.0 0.0 0.00 0.00 0.00 53 1006.4
20260504171307 72 0.0 0.0 0.00 0.00 0.00 51 1006.1
20260504141307 75 0.0 0.0 0.00 0.00 0.00 48 1007.1
20260504081307 69 0.0 0.0 0.00 0.00 0.00 58 1008.1
20260504045806 61 0.0 0.0 0.00 0.00 0.00 69 1007.1
20260504044307 61 0.0 0.0 0.00 0.00 0.00 68 1006.2
20260504042807 61 0.0 0.0 0.00 0.00 0.00 68 1006.3
20260504041306 61 0.0 0.0 0.00 0.00 0.00 67 1006.2
20260504035806 62 0.0 0.0 0.00 0.00 0.00 67 1006.2
20260504034307 62 0.0 0.0 0.00 0.00 0.00 66 1006.0
20260504032807 64 0.0 0.0 0.00 0.00 0.00 59 1006.0
20260504031306 64 0.0 0.0 0.00 0.00 0.00 53 1005.5
20260504025806 65 0.0 0.0 0.00 0.00 0.00 52 1006.6
20260504024307 65 0.0 0.0 0.00 0.00 0.00 52 1006.2
20260504022807 65 0.0 0.0 0.00 0.00 0.00 50 1006.5
20260504021307 66 0.0 0.0 0.00 0.00 0.00 51 1006.3
20260504015807 66 0.0 0.0 0.00 0.00 0.00 49 1006.8
20260504014307 67 0.0 0.0 0.00 0.00 0.00 48 1006.3
20260504012807 67 0.0 0.0 0.00 0.00 0.00 47 1005.7
20260504011307 68 0.0 0.0 0.00 0.00 0.00 46 1005.8
20260504005807 68 0.0 0.0 0.00 0.00 0.00 45 1005.4
20260504004306 68 0.0 0.0 0.00 0.00 0.00 45 1005.4
20260504002807 69 0.0 0.0 0.00 0.00 0.00 44 1005.3
20260504001307 69 0.0 0.0 0.00 0.00 0.00 42 1005.4
20260503235806 70 0.0 0.0 0.00 0.00 0.00 40 1005.6
20260503234307 71 0.0 0.0 0.00 0.00 0.00 39 1005.5
20260503232806 71 0.0 0.0 0.00 0.00 0.00 39 1005.6
20260503231307 72 0.0 0.0 0.00 0.00 0.00 38 1005.2
20260503225807 72 0.0 0.0 0.00 0.00 0.00 38 1005.3
20260503224307 71 0.0 0.0 0.00 0.00 0.00 41 1005.4
20260503222807 71 0.0 0.0 0.00 0.00 0.00 43 1005.2
20260503221307 67 0.0 0.0 0.00 0.00 0.00 52 1005.0
20260503215807 67 0.0 0.0 0.00 0.00 0.00 54 1005.2
20260503214307 66 0.0 0.0 0.00 0.00 0.00 56 1005.2
20260503212807 67 0.0 0.0 0.00 0.00 0.00 53 1005.3
20260503211307 67 0.0 0.0 0.00 0.00 0.00 52 1005.2
20260503205807 68 0.0 0.0 0.00 0.00 0.00 50 1005.2